This is the latest recevied weather packets stored in our database for station/object OK1LPD-5. If no packets are shown the sender has not sent any weather packets the latest 10 day(s).
| Time | Temp. | Humidity | Pressure | Rain* | Wind** | Luminosity | Snow |
|---|---|---|---|---|---|---|---|
| 1777672814 | 6.67° C | 82% | 1021.3 hPa | 0 mm | - | - | - |
| 1777672209 | 7.22° C | 81% | 1021 hPa | 0 mm | - | - | - |
| 1777671609 | 7.22° C | 80% | 1021.2 hPa | 0 mm | - | - | - |
| 1777671009 | 7.22° C | 79% | 1021 hPa | 0 mm | - | - | - |
| 1777670412 | 7.78° C | 78% | 1021 hPa | 0 mm | - | - | - |
| 1777669809 | 7.78° C | 77% | 1020.9 hPa | 0 mm | - | - | - |
| 1777669210 | 8.33° C | 75% | 1020.9 hPa | 0 mm | - | - | - |
| 1777668610 | 8.33° C | 74% | 1020.8 hPa | 0 mm | - | - | - |
| 1777668009 | 8.33° C | 73% | 1020.8 hPa | 0 mm | - | - | - |
| 1777667410 | 8.89° C | 72% | 1020.7 hPa | 0 mm | - | - | - |
| 1777666809 | 9.44° C | 71% | 1020.7 hPa | 0 mm | - | - | - |
| 1777666209 | 9.44° C | 69% | 1020.7 hPa | 0 mm | - | - | - |
| 1777665612 | 10° C | 67% | 1020.5 hPa | 0 mm | - | - | - |
| 1777664410 | 10.56° C | 64% | 1020.3 hPa | 0 mm | - | - | - |
| 1777663809 | 11.11° C | 63% | 1020.2 hPa | 0 mm | - | - | - |
| 1777663213 | 11.67° C | 61% | 1020.1 hPa | 0 mm | - | - | - |
| 1777662610 | 11.67° C | 60% | 1020 hPa | 0 mm | - | - | - |
| 1777662010 | 12.22° C | 58% | 1019.8 hPa | 0 mm | - | - | - |
| 1777661412 | 12.78° C | 56% | 1019.9 hPa | 0 mm | - | - | - |
| 1777660809 | 13.33° C | 54% | 1019.6 hPa | 0 mm | - | - | - |
| 1777660209 | 14.44° C | 52% | 1019.6 hPa | 0 mm | - | - | - |
| 1777659612 | 15° C | 50% | 1019.5 hPa | 0 mm | - | - | - |
| 1777659009 | 15.56° C | 48% | 1019.2 hPa | 0 mm | - | - | - |
| 1777658410 | 16.67° C | 46% | 1019.2 hPa | 0 mm | - | - | - |
| 1777657811 | 17.22° C | 45% | 1019 hPa | 0 mm | - | - | - |
* Rain latest hour (hover to see other rain measurements)
** Current wind speed in m/s (hover to see current wind gust speed)